| time (UTC) | temp F | wind direction | speed MPH | gust MPH | rain 1hr in | rain 24hr in | rain mn in | humidity % | barometer mb |
| 20260505011504 | 48 | 4 | 0.0 | 1.0 | 0.00 | 0.00 | 0.00 | 94 | 1010.7 |
| 20260505011403 | 48 | 4 | 0.0 | 1.0 | 0.00 | 0.00 | 0.00 | 94 | 1010.7 |
| 20260505011204 | 48 | 4 | 0.0 | 1.0 | 0.00 | 0.00 | 0.00 | 94 | 1010.5 |
| 20260505011104 | 48 | 4 | 0.0 | 1.0 | 0.00 | 0.00 | 0.00 | 94 | 1010.6 |
| 20260505011003 | 48 | 4 | 0.0 | 1.0 | 0.00 | 0.00 | 0.00 | 94 | 1010.7 |
| 20260505010903 | 48 | 4 | 0.0 | 1.0 | 0.00 | 0.00 | 0.00 | 94 | 1010.6 |
| 20260505010803 | 48 | 4 | 0.0 | 1.0 | 0.00 | 0.00 | 0.00 | 94 | 1010.5 |
| 20260505010704 | 48 | 4 | 0.0 | 1.0 | 0.00 | 0.00 | 0.00 | 94 | 1010.7 |
| 20260505010604 | 48 | 4 | 0.0 | 1.0 | 0.00 | 0.00 | 0.00 | 93 | 1010.6 |
| 20260505010504 | 48 | 4 | 0.0 | 1.0 | 0.00 | 0.00 | 0.00 | 93 | 1010.6 |
| 20260505010403 | 48 | 4 | 0.0 | 1.0 | 0.00 | 0.00 | 0.00 | 93 | 1010.8 |
| 20260505010304 | 48 | 4 | 0.0 | 1.0 | 0.00 | 0.00 | 0.00 | 93 | 1010.6 |
| 20260505010203 | 48 | 4 | 0.0 | 1.0 | 0.00 | 0.00 | 0.00 | 93 | 1010.7 |
| 20260505010104 | 48 | 4 | 0.0 | 1.0 | 0.00 | 0.00 | 0.00 | 93 | 1010.9 |
| 20260505010005 | 48 | 4 | 0.0 | 1.0 | 0.00 | 0.00 | 0.00 | 93 | 1010.8 |
| 20260505005904 | 48 | 4 | 0.0 | 1.0 | 0.00 | 0.00 | 0.00 | 93 | 1010.8 |
| 20260505005803 | 48 | 4 | 0.0 | 1.0 | 0.00 | 0.00 | 0.00 | 92 | 1010.8 |
| 20260505005604 | 48 | 4 | 0.0 | 1.0 | 0.00 | 0.00 | 0.00 | 93 | 1010.8 |
| 20260505005504 | 48 | 4 | 0.0 | 1.0 | 0.00 | 0.00 | 0.00 | 93 | 1010.8 |
| 20260505005403 | 49 | 0 | 0.0 | 1.0 | 0.00 | 0.00 | 0.00 | 93 | 1010.7 |
| 20260505005320 | 49 | 0 | 0.0 | 1.0 | 0.00 | 0.00 | 0.00 | 93 | 1010.8 |
| 20260505005304 | 49 | 4 | 0.0 | 1.0 | 0.00 | 0.00 | 0.00 | 93 | 1010.8 |
| 20260505005203 | 49 | 4 | 0.0 | 1.0 | 0.00 | 0.00 | 0.00 | 93 | 1010.7 |
| 20260505005005 | 49 | 4 | 0.0 | 2.0 | 0.00 | 0.00 | 0.00 | 92 | 1010.6 |
| 20260505004904 | 49 | 4 | 0.0 | 2.0 | 0.00 | 0.00 | 0.00 | 93 | 1010.7 |
| 20260505004803 | 49 | 4 | 0.0 | 2.0 | 0.00 | 0.00 | 0.00 | 93 | 1010.4 |
| 20260505004705 | 49 | 4 | 0.0 | 2.0 | 0.00 | 0.00 | 0.00 | 93 | 1010.6 |
| 20260505004604 | 49 | 4 | 0.0 | 2.0 | 0.00 | 0.00 | 0.00 | 93 | 1010.4 |
| 20260505004526 | 49 | 4 | 0.0 | 2.0 | 0.00 | 0.00 | 0.00 | 93 | 1010.5 |
| 20260505004404 | 49 | 4 | 0.0 | 2.0 | 0.00 | 0.00 | 0.00 | 93 | 1010.8 |
| 20260505004304 | 49 | 4 | 0.0 | 2.0 | 0.00 | 0.00 | 0.00 | 93 | 1010.7 |
| 20260505004203 | 49 | 4 | 0.0 | 2.0 | 0.00 | 0.00 | 0.00 | 93 | 1010.6 |
| 20260505004119 | 49 | 4 | 0.0 | 2.0 | 0.00 | 0.00 | 0.00 | 93 | 1010.5 |
| 20260505003803 | 49 | 4 | 0.0 | 2.0 | 0.00 | 0.00 | 0.00 | 92 | 1010.8 |
| 20260505003718 | 49 | 4 | 0.0 | 1.0 | 0.00 | 0.00 | 0.00 | 92 | 1010.5 |
| 20260505003704 | 49 | 4 | 0.0 | 1.0 | 0.00 | 0.00 | 0.00 | 93 | 1010.5 |
| 20260505003604 | 49 | 0 | 0.0 | 0.0 | 0.00 | 0.00 | 0.00 | 92 | 1010.6 |
| 20260505003403 | 49 | 0 | 0.0 | 0.0 | 0.00 | 0.00 | 0.00 | 92 | 1010.5 |
| 20260505003303 | 49 | 0 | 0.0 | 0.0 | 0.00 | 0.00 | 0.00 | 92 | 1010.6 |
| 20260505003104 | 49 | 0 | 0.0 | 0.0 | 0.00 | 0.00 | 0.00 | 92 | 1010.6 |
| 20260505003004 | 49 | 0 | 0.0 | 0.0 | 0.00 | 0.00 | 0.00 | 92 | 1010.7 |
| 20260505002903 | 50 | 0 | 0.0 | 0.0 | 0.00 | 0.00 | 0.00 | 92 | 1010.5 |
| 20260505002804 | 50 | 0 | 0.0 | 0.0 | 0.00 | 0.00 | 0.00 | 92 | 1010.5 |
| 20260505002703 | 50 | 0 | 0.0 | 0.0 | 0.00 | 0.00 | 0.00 | 92 | 1010.6 |
| 20260505002604 | 50 | 0 | 0.0 | 0.0 | 0.00 | 0.00 | 0.00 | 92 | 1010.5 |
| 20260505002403 | 50 | 0 | 0.0 | 0.0 | 0.00 | 0.00 | 0.00 | 91 | 1010.4 |
| 20260505002304 | 50 | 0 | 0.0 | 0.0 | 0.00 | 0.00 | 0.00 | 91 | 1010.4 |
| 20260505002203 | 50 | 0 | 0.0 | 0.0 | 0.00 | 0.00 | 0.00 | 91 | 1010.5 |
| 20260505002103 | 50 | 0 | 0.0 | 0.0 | 0.00 | 0.00 | 0.00 | 90 | 1010.6 |
| 20260505002004 | 50 | 0 | 0.0 | 0.0 | 0.00 | 0.00 | 0.00 | 90 | 1010.5 |
| 20260505001903 | 50 | 0 | 0.0 | 0.0 | 0.00 | 0.00 | 0.00 | 90 | 1010.5 |
| 20260505001803 | 50 | 0 | 0.0 | 0.0 | 0.00 | 0.00 | 0.00 | 90 | 1010.6 |
| 20260505001704 | 50 | 0 | 0.0 | 0.0 | 0.00 | 0.00 | 0.00 | 90 | 1010.4 |
| 20260505001604 | 50 | 0 | 0.0 | 0.0 | 0.00 | 0.00 | 0.00 | 90 | 1010.4 |
| 20260505001503 | 50 | 0 | 0.0 | 0.0 | 0.00 | 0.00 | 0.00 | 90 | 1010.4 |
| 20260505001404 | 50 | 0 | 0.0 | 0.0 | 0.00 | 0.00 | 0.00 | 90 | 1010.4 |
| 20260505001304 | 50 | 0 | 0.0 | 0.0 | 0.00 | 0.00 | 0.00 | 90 | 1010.4 |
| 20260505001203 | 50 | 0 | 0.0 | 0.0 | 0.00 | 0.00 | 0.00 | 90 | 1010.5 |
| 20260505001104 | 50 | 0 | 0.0 | 0.0 | 0.00 | 0.00 | 0.00 | 90 | 1010.5 |
| 20260505001003 | 50 | 0 | 0.0 | 0.0 | 0.00 | 0.00 | 0.00 | 90 | 1010.4 |
| 20260505000903 | 50 | 0 | 0.0 | 0.0 | 0.00 | 0.00 | 0.00 | 90 | 1010.5 |
| 20260505000803 | 50 | 0 | 0.0 | 0.0 | 0.00 | 0.00 | 0.00 | 89 | 1010.5 |
| 20260505000703 | 50 | 0 | 0.0 | 0.0 | 0.00 | 0.00 | 0.00 | 89 | 1010.7 |
| 20260505000603 | 50 | 0 | 0.0 | 0.0 | 0.00 | 0.00 | 0.00 | 89 | 1010.6 |
| 20260505000503 | 50 | 0 | 0.0 | 0.0 | 0.00 | 0.00 | 0.00 | 89 | 1010.7 |
| 20260505000405 | 50 | 0 | 0.0 | 0.0 | 0.00 | 0.00 | 0.00 | 88 | 1010.5 |
| 20260505000303 | 50 | 0 | 0.0 | 0.0 | 0.00 | 0.00 | 0.00 | 88 | 1010.5 |
| 20260505000204 | 50 | 0 | 0.0 | 0.0 | 0.00 | 0.00 | 0.00 | 88 | 1010.6 |
| 20260505000104 | 50 | 0 | 0.0 | 0.0 | 0.00 | 0.00 | 0.00 | 87 | 1010.5 |
| 20260505000004 | 50 | 0 | 0.0 | 0.0 | 0.00 | 0.00 | 0.00 | 87 | 1010.8 |
| 20260504235916 | 51 | 0 | 0.0 | 0.0 | 0.00 | 0.00 | 0.00 | 87 | 1010.5 |
| 20260504235822 | 51 | 0 | 0.0 | 0.0 | 0.00 | 0.00 | 0.00 | 87 | 1010.6 |
| 20260504235804 | 51 | 0 | 0.0 | 1.0 | 0.00 | 0.00 | 0.00 | 87 | 1010.6 |
| 20260504235504 | 51 | 4 | 0.0 | 1.0 | 0.00 | 0.00 | 0.00 | 88 | 1010.7 |
| 20260504235403 | 51 | 4 | 0.0 | 1.0 | 0.00 | 0.00 | 0.00 | 88 | 1010.7 |
| 20260504235304 | 51 | 4 | 0.0 | 1.0 | 0.00 | 0.00 | 0.00 | 88 | 1010.7 |
| 20260504235203 | 51 | 4 | 0.0 | 1.0 | 0.00 | 0.00 | 0.00 | 88 | 1010.5 |
| 20260504235103 | 51 | 18 | 0.0 | 3.0 | 0.00 | 0.00 | 0.00 | 88 | 1010.6 |
| 20260504235003 | 51 | 48 | 0.0 | 3.0 | 0.00 | 0.00 | 0.00 | 88 | 1010.6 |
| 20260504234903 | 51 | 55 | 0.0 | 3.0 | 0.00 | 0.00 | 0.00 | 88 | 1010.6 |
| 20260504234804 | 51 | 60 | 0.0 | 3.0 | 0.00 | 0.00 | 0.00 | 88 | 1010.6 |
| 20260504234604 | 52 | 74 | 1.0 | 3.0 | 0.00 | 0.00 | 0.00 | 88 | 1010.7 |
| 20260504234504 | 52 | 82 | 1.0 | 3.0 | 0.00 | 0.00 | 0.00 | 88 | 1010.6 |
| 20260504234404 | 52 | 87 | 0.0 | 3.0 | 0.00 | 0.00 | 0.00 | 88 | 1010.7 |
| 20260504234309 | 52 | 90 | 0.0 | 3.0 | 0.00 | 0.00 | 0.00 | 88 | 1010.6 |
| 20260504234204 | 52 | 91 | 0.0 | 3.0 | 0.00 | 0.00 | 0.00 | 88 | 1010.7 |
| 20260504234105 | 52 | 91 | 0.0 | 3.0 | 0.00 | 0.00 | 0.00 | 89 | 1010.7 |
| 20260504234004 | 52 | 91 | 1.0 | 3.0 | 0.00 | 0.00 | 0.00 | 89 | 1010.7 |
| 20260504233904 | 52 | 98 | 0.0 | 2.0 | 0.00 | 0.00 | 0.00 | 89 | 1010.7 |
| 20260504233803 | 52 | 105 | 0.0 | 2.0 | 0.00 | 0.00 | 0.00 | 88 | 1010.5 |
| 20260504233703 | 52 | 112 | 0.0 | 2.0 | 0.00 | 0.00 | 0.00 | 89 | 1010.6 |
| 20260504233616 | 52 | 115 | 0.0 | 2.0 | 0.00 | 0.00 | 0.00 | 89 | 1010.5 |
| 20260504233604 | 52 | 116 | 0.0 | 2.0 | 0.00 | 0.00 | 0.00 | 89 | 1010.5 |
| 20260504233504 | 52 | 121 | 0.0 | 2.0 | 0.00 | 0.00 | 0.00 | 88 | 1010.5 |
| 20260504233304 | 52 | 127 | 1.0 | 2.0 | 0.00 | 0.00 | 0.00 | 88 | 1010.6 |
| 20260504233204 | 52 | 128 | 1.0 | 2.0 | 0.00 | 0.00 | 0.00 | 88 | 1010.5 |
| 20260504233105 | 52 | 130 | 1.0 | 2.0 | 0.00 | 0.00 | 0.00 | 88 | 1010.6 |
| 20260504232904 | 52 | 127 | 1.0 | 2.0 | 0.00 | 0.00 | 0.00 | 87 | 1010.6 |
| 20260504232821 | 52 | 127 | 1.0 | 2.0 | 0.00 | 0.00 | 0.00 | 88 | 1010.6 |
| 20260504232804 | 52 | 126 | 1.0 | 2.0 | 0.00 | 0.00 | 0.00 | 88 | 1010.6 |
| 20260504232703 | 53 | 126 | 1.0 | 2.0 | 0.00 | 0.00 | 0.00 | 87 | 1010.5 |
| 20260504232516 | 53 | 122 | 1.0 | 2.0 | 0.00 | 0.00 | 0.00 | 85 | 1010.7 |
| 20260504232504 | 53 | 121 | 1.0 | 2.0 | 0.00 | 0.00 | 0.00 | 85 | 1010.7 |
| 20260504232405 | 53 | 119 | 1.0 | 2.0 | 0.00 | 0.00 | 0.00 | 86 | 1010.5 |
| 20260504232203 | 53 | 111 | 1.0 | 2.0 | 0.00 | 0.00 | 0.00 | 86 | 1010.5 |
| 20260504232103 | 53 | 109 | 1.0 | 2.0 | 0.00 | 0.00 | 0.00 | 84 | 1010.6 |
| 20260504232003 | 53 | 106 | 1.0 | 2.0 | 0.00 | 0.00 | 0.00 | 84 | 1010.6 |
| 20260504231904 | 53 | 107 | 1.0 | 2.0 | 0.00 | 0.00 | 0.00 | 85 | 1010.7 |
| 20260504231804 | 53 | 105 | 1.0 | 2.0 | 0.00 | 0.00 | 0.00 | 85 | 1010.7 |
| 20260504231703 | 53 | 102 | 1.0 | 2.0 | 0.00 | 0.00 | 0.00 | 85 | 1010.7 |
| 20260504231603 | 53 | 104 | 1.0 | 2.0 | 0.00 | 0.00 | 0.00 | 83 | 1010.8 |
| 20260504231503 | 53 | 105 | 1.0 | 2.0 | 0.00 | 0.00 | 0.00 | 84 | 1010.7 |
| 20260504231403 | 53 | 104 | 1.0 | 2.0 | 0.00 | 0.00 | 0.00 | 84 | 1010.7 |
| 20260504231303 | 54 | 103 | 1.0 | 2.0 | 0.00 | 0.00 | 0.00 | 83 | 1010.8 |
| 20260504231203 | 54 | 103 | 1.0 | 2.0 | 0.00 | 0.00 | 0.00 | 84 | 1010.7 |
| 20260504231105 | 54 | 101 | 1.0 | 2.0 | 0.00 | 0.00 | 0.00 | 83 | 1010.9 |
| 20260504231003 | 54 | 100 | 0.0 | 2.0 | 0.00 | 0.00 | 0.00 | 83 | 1010.8 |
| 20260504230904 | 54 | 100 | 0.0 | 2.0 | 0.00 | 0.00 | 0.00 | 83 | 1010.8 |
| 20260504230804 | 54 | 98 | 0.0 | 2.0 | 0.00 | 0.00 | 0.00 | 82 | 1010.9 |
| 20260504230703 | 54 | 101 | 0.0 | 2.0 | 0.00 | 0.00 | 0.00 | 82 | 1010.8 |
| 20260504230603 | 54 | 98 | 0.0 | 2.0 | 0.00 | 0.00 | 0.00 | 83 | 1010.8 |
| 20260504230503 | 54 | 61 | 0.0 | 2.0 | 0.00 | 0.00 | 0.00 | 83 | 1010.7 |
| 20260504230403 | 55 | 23 | 0.0 | 2.0 | 0.00 | 0.00 | 0.00 | 81 | 1010.8 |
| 20260504230304 | 55 | 30 | 0.0 | 2.0 | 0.00 | 0.00 | 0.00 | 81 | 1010.9 |
| 20260504230104 | 55 | 43 | 0.0 | 3.0 | 0.00 | 0.00 | 0.00 | 81 | 1010.8 |
| 20260504230003 | 55 | 45 | 0.0 | 3.0 | 0.00 | 0.00 | 0.00 | 82 | 1010.9 |
| 20260504225904 | 55 | 44 | 1.0 | 3.0 | 0.00 | 0.00 | 0.00 | 82 | 1010.8 |
| 20260504225804 | 55 | 45 | 1.0 | 3.0 | 0.00 | 0.00 | 0.00 | 81 | 1011.0 |
| 20260504225704 | 55 | 46 | 1.0 | 3.0 | 0.00 | 0.00 | 0.00 | 80 | 1010.9 |
| 20260504225603 | 56 | 45 | 1.0 | 3.0 | 0.00 | 0.00 | 0.00 | 80 | 1010.9 |
| 20260504225503 | 56 | 50 | 1.0 | 3.0 | 0.00 | 0.00 | 0.00 | 80 | 1010.9 |
| 20260504225403 | 56 | 51 | 1.0 | 3.0 | 0.00 | 0.00 | 0.00 | 81 | 1010.9 |
| 20260504225319 | 56 | 50 | 1.0 | 3.0 | 0.00 | 0.00 | 0.00 | 80 | 1010.8 |
| 20260504225304 | 56 | 49 | 1.0 | 3.0 | 0.00 | 0.00 | 0.00 | 80 | 1010.8 |
| 20260504225203 | 56 | 45 | 1.0 | 3.0 | 0.00 | 0.00 | 0.00 | 80 | 1010.9 |
| 20260504225116 | 56 | 40 | 1.0 | 3.0 | 0.00 | 0.00 | 0.00 | 80 | 1010.8 |
| 20260504225004 | 56 | 39 | 1.0 | 3.0 | 0.00 | 0.00 | 0.00 | 81 | 1010.8 |
| 20260504224804 | 56 | 41 | 1.0 | 4.0 | 0.00 | 0.00 | 0.00 | 80 | 1011.0 |
| 20260504224703 | 56 | 41 | 1.0 | 4.0 | 0.00 | 0.00 | 0.00 | 80 | 1010.7 |
| 20260504224604 | 56 | 39 | 1.0 | 4.0 | 0.00 | 0.00 | 0.00 | 80 | 1010.7 |
| 20260504224504 | 56 | 36 | 1.0 | 4.0 | 0.00 | 0.00 | 0.00 | 80 | 1010.9 |
| 20260504224404 | 56 | 33 | 1.0 | 4.0 | 0.00 | 0.00 | 0.00 | 80 | 1010.9 |
| 20260504224303 | 56 | 33 | 1.0 | 4.0 | 0.00 | 0.00 | 0.00 | 80 | 1010.9 |
| 20260504224203 | 56 | 39 | 1.0 | 4.0 | 0.00 | 0.00 | 0.00 | 80 | 1010.7 |
| 20260504224104 | 56 | 43 | 1.0 | 4.0 | 0.00 | 0.00 | 0.00 | 80 | 1010.9 |
| 20260504224003 | 57 | 44 | 1.0 | 6.0 | 0.00 | 0.00 | 0.00 | 80 | 1011.0 |
| 20260504223903 | 57 | 40 | 1.0 | 6.0 | 0.00 | 0.00 | 0.00 | 80 | 1011.0 |
| 20260504223804 | 57 | 36 | 2.0 | 6.0 | 0.00 | 0.00 | 0.00 | 80 | 1010.7 |
| 20260504223704 | 57 | 33 | 2.0 | 6.0 | 0.00 | 0.00 | 0.00 | 80 | 1010.9 |
| 20260504223604 | 57 | 33 | 2.0 | 6.0 | 0.00 | 0.00 | 0.00 | 79 | 1010.8 |
| 20260504223504 | 57 | 35 | 2.0 | 6.0 | 0.00 | 0.00 | 0.00 | 79 | 1010.6 |
| 20260504223404 | 57 | 34 | 2.0 | 6.0 | 0.00 | 0.00 | 0.00 | 79 | 1010.9 |
| 20260504223218 | 57 | 28 | 2.0 | 6.0 | 0.00 | 0.00 | 0.00 | 79 | 1010.8 |
| 20260504223205 | 57 | 27 | 2.0 | 6.0 | 0.00 | 0.00 | 0.00 | 79 | 1010.8 |
| 20260504223103 | 57 | 25 | 2.0 | 6.0 | 0.00 | 0.00 | 0.00 | 80 | 1010.9 |
| 20260504222905 | 57 | 15 | 2.0 | 4.0 | 0.00 | 0.00 | 0.00 | 80 | 1010.9 |
| 20260504222803 | 57 | 12 | 2.0 | 4.0 | 0.00 | 0.00 | 0.00 | 79 | 1010.9 |
| 20260504222703 | 57 | 14 | 2.0 | 4.0 | 0.00 | 0.00 | 0.00 | 79 | 1010.9 |
| 20260504222604 | 57 | 19 | 1.0 | 6.0 | 0.00 | 0.00 | 0.00 | 79 | 1010.8 |
| 20260504222404 | 57 | 16 | 1.0 | 6.0 | 0.00 | 0.00 | 0.00 | 79 | 1010.9 |
| 20260504222304 | 57 | 18 | 1.0 | 6.0 | 0.00 | 0.00 | 0.00 | 79 | 1010.8 |
| 20260504222220 | 57 | 18 | 1.0 | 6.0 | 0.00 | 0.00 | 0.00 | 78 | 1011.0 |
| 20260504222203 | 57 | 17 | 1.0 | 6.0 | 0.00 | 0.00 | 0.00 | 78 | 1011.0 |
| 20260504222103 | 57 | 14 | 1.0 | 6.0 | 0.00 | 0.00 | 0.00 | 79 | 1011.0 |
| 20260504221920 | 57 | 19 | 1.0 | 6.0 | 0.00 | 0.00 | 0.00 | 79 | 1010.9 |
| 20260504221904 | 57 | 21 | 2.0 | 6.0 | 0.00 | 0.00 | 0.00 | 79 | 1010.9 |
| 20260504221803 | 57 | 24 | 2.0 | 6.0 | 0.00 | 0.00 | 0.00 | 79 | 1010.8 |
| 20260504221603 | 58 | 16 | 2.0 | 6.0 | 0.00 | 0.00 | 0.00 | 79 | 1010.9 |
| 20260504221503 | 58 | 13 | 2.0 | 6.0 | 0.00 | 0.00 | 0.00 | 79 | 1011.0 |
| 20260504221403 | 58 | 14 | 2.0 | 4.0 | 0.00 | 0.00 | 0.00 | 79 | 1010.8 |
| 20260504221319 | 58 | 13 | 2.0 | 4.0 | 0.00 | 0.00 | 0.00 | 79 | 1010.8 |
| 20260504221303 | 58 | 12 | 2.0 | 4.0 | 0.00 | 0.00 | 0.00 | 79 | 1010.8 |
| 20260504221204 | 58 | 14 | 2.0 | 4.0 | 0.00 | 0.00 | 0.00 | 78 | 1010.8 |
| 20260504221003 | 58 | 10 | 2.0 | 4.0 | 0.00 | 0.00 | 0.00 | 78 | 1011.1 |
| 20260504220904 | 58 | 5 | 2.0 | 4.0 | 0.00 | 0.00 | 0.00 | 79 | 1011.0 |
| 20260504220804 | 58 | 5 | 2.0 | 4.0 | 0.00 | 0.00 | 0.00 | 78 | 1010.9 |
| 20260504220705 | 58 | 8 | 2.0 | 4.0 | 0.00 | 0.00 | 0.00 | 78 | 1010.8 |
| 20260504220617 | 58 | 8 | 2.0 | 4.0 | 0.00 | 0.00 | 0.00 | 79 | 1010.9 |
| 20260504220604 | 58 | 7 | 2.0 | 4.0 | 0.00 | 0.00 | 0.00 | 79 | 1010.9 |
| 20260504220508 | 58 | 8 | 2.0 | 4.0 | 0.00 | 0.00 | 0.00 | 78 | 1010.8 |
| 20260504220418 | 58 | 8 | 2.0 | 4.0 | 0.00 | 0.00 | 0.00 | 78 | 1010.9 |
| 20260504220303 | 58 | 6 | 2.0 | 4.0 | 0.00 | 0.00 | 0.00 | 78 | 1010.9 |
| 20260504220003 | 58 | 356 | 2.0 | 6.0 | 0.00 | 0.00 | 0.00 | 78 | 1011.0 |
| 20260504215903 | 58 | 359 | 2.0 | 8.0 | 0.00 | 0.00 | 0.00 | 78 | 1010.8 |
| 20260504215804 | 58 | 358 | 3.0 | 8.0 | 0.00 | 0.00 | 0.00 | 78 | 1010.7 |
| 20260504215705 | 58 | 355 | 3.0 | 8.0 | 0.00 | 0.00 | 0.00 | 78 | 1010.8 |
| 20260504215604 | 58 | 355 | 3.0 | 8.0 | 0.00 | 0.00 | 0.00 | 78 | 1011.0 |
| 20260504215503 | 58 | 359 | 3.0 | 8.0 | 0.00 | 0.00 | 0.00 | 79 | 1010.8 |
| 20260504215403 | 58 | 357 | 3.0 | 8.0 | 0.00 | 0.00 | 0.00 | 79 | 1010.9 |
| 20260504215319 | 58 | 359 | 3.0 | 8.0 | 0.00 | 0.00 | 0.00 | 79 | 1010.9 |
| 20260504215305 | 58 | 1 | 3.0 | 8.0 | 0.00 | 0.00 | 0.00 | 79 | 1010.9 |
| 20260504215218 | 57 | 5 | 3.0 | 8.0 | 0.00 | 0.00 | 0.00 | 79 | 1010.9 |
| 20260504215203 | 57 | 6 | 3.0 | 8.0 | 0.00 | 0.00 | 0.00 | 79 | 1010.9 |
| 20260504214904 | 57 | 13 | 2.0 | 8.0 | 0.00 | 0.00 | 0.00 | 79 | 1010.9 |
| 20260504214804 | 57 | 18 | 2.0 | 8.0 | 0.00 | 0.00 | 0.00 | 79 | 1011.0 |
| 20260504214704 | 56 | 23 | 2.0 | 7.0 | 0.00 | 0.00 | 0.00 | 80 | 1010.9 |
| 20260504214617 | 56 | 21 | 2.0 | 7.0 | 0.00 | 0.00 | 0.00 | 79 | 1010.9 |
| 20260504214604 | 56 | 20 | 2.0 | 7.0 | 0.00 | 0.00 | 0.00 | 79 | 1010.9 |
| 20260504214504 | 56 | 13 | 2.0 | 7.0 | 0.00 | 0.00 | 0.00 | 79 | 1010.8 |
| 20260504214418 | 56 | 14 | 1.0 | 7.0 | 0.00 | 0.00 | 0.00 | 79 | 1010.8 |
| 20260504214303 | 55 | 18 | 1.0 | 7.0 | 0.00 | 0.00 | 0.00 | 79 | 1010.9 |
| 20260504214220 | 55 | 13 | 1.0 | 7.0 | 0.00 | 0.00 | 0.00 | 79 | 1010.9 |
| 20260504214103 | 55 | 8 | 1.0 | 7.0 | 0.00 | 0.00 | 0.00 | 77 | 1010.8 |
| 20260504213903 | 55 | 4 | 2.0 | 7.0 | 0.00 | 0.00 | 0.00 | 78 | 1010.7 |
| 20260504213818 | 55 | 359 | 2.0 | 6.0 | 0.00 | 0.00 | 0.00 | 77 | 1010.8 |
| 20260504213803 | 55 | 356 | 1.0 | 6.0 | 0.00 | 0.00 | 0.00 | 77 | 1010.8 |
| 20260504213703 | 54 | 360 | 2.0 | 6.0 | 0.00 | 0.00 | 0.00 | 77 | 1010.8 |
| 20260504213504 | 54 | 7 | 1.0 | 6.0 | 0.00 | 0.00 | 0.00 | 78 | 1010.6 |
| 20260504213404 | 53 | 6 | 1.0 | 4.0 | 0.00 | 0.00 | 0.00 | 78 | 1010.7 |
| 20260504213319 | 53 | 355 | 1.0 | 4.0 | 0.00 | 0.00 | 0.00 | 78 | 1010.7 |
| 20260504213303 | 53 | 353 | 1.0 | 4.0 | 0.00 | 0.00 | 0.00 | 78 | 1010.7 |
| 20260504213204 | 53 | 346 | 1.0 | 4.0 | 0.00 | 0.00 | 0.00 | 79 | 1010.6 |
| 20260504213018 | 52 | 247 | 1.0 | 4.0 | 0.00 | 0.00 | 0.00 | 79 | 1010.8 |
| 20260504213003 | 52 | 235 | 1.0 | 4.0 | 0.00 | 0.00 | 0.00 | 79 | 1010.8 |
| 20260504212904 | 52 | 212 | 1.0 | 2.0 | 0.00 | 0.00 | 0.00 | 78 | 1010.7 |
| 20260504212703 | 52 | 227 | 1.0 | 3.0 | 0.00 | 0.00 | 0.00 | 78 | 1010.5 |
| 20260504212603 | 52 | 232 | 1.0 | 3.0 | 0.00 | 0.00 | 0.00 | 79 | 1010.6 |
| 20260504212503 | 52 | 238 | 1.0 | 3.0 | 0.00 | 0.00 | 0.00 | 78 | 1010.6 |
| 20260504212403 | 52 | 245 | 1.0 | 3.0 | 0.00 | 0.00 | 0.00 | 78 | 1010.7 |
| 20260504212304 | 52 | 255 | 1.0 | 3.0 | 0.00 | 0.00 | 0.00 | 78 | 1010.6 |
| 20260504212203 | 52 | 260 | 1.0 | 3.0 | 0.00 | 0.00 | 0.00 | 78 | 1010.6 |
| 20260504212104 | 52 | 263 | 1.0 | 3.0 | 0.00 | 0.00 | 0.00 | 78 | 1010.7 |
| 20260504212003 | 52 | 266 | 2.0 | 3.0 | 0.00 | 0.00 | 0.00 | 79 | 1010.6 |
| 20260504211903 | 52 | 266 | 2.0 | 3.0 | 0.00 | 0.00 | 0.00 | 79 | 1010.5 |
| 20260504211703 | 52 | 266 | 2.0 | 3.0 | 0.00 | 0.00 | 0.00 | 79 | 1010.6 |
| 20260504211604 | 52 | 266 | 1.0 | 3.0 | 0.00 | 0.00 | 0.00 | 79 | 1010.6 |
| 20260504211503 | 52 | 264 | 1.0 | 3.0 | 0.00 | 0.00 | 0.00 | 79 | 1010.5 |
| 20260504211404 | 52 | 261 | 1.0 | 3.0 | 0.00 | 0.00 | 0.00 | 79 | 1010.5 |
| 20260504211203 | 52 | 263 | 1.0 | 3.0 | 0.00 | 0.00 | 0.00 | 79 | 1010.4 |
| 20260504211103 | 51 | 269 | 1.0 | 3.0 | 0.00 | 0.00 | 0.00 | 80 | 1010.5 |
| 20260504211003 | 51 | 272 | 1.0 | 3.0 | 0.00 | 0.00 | 0.00 | 79 | 1010.4 |
| 20260504210903 | 51 | 274 | 1.0 | 3.0 | 0.00 | 0.00 | 0.00 | 79 | 1010.4 |
| 20260504210804 | 51 | 272 | 1.0 | 3.0 | 0.00 | 0.00 | 0.00 | 79 | 1010.4 |
| 20260504210703 | 51 | 264 | 1.0 | 3.0 | 0.00 | 0.00 | 0.00 | 79 | 1010.4 |
| 20260504210603 | 51 | 259 | 1.0 | 3.0 | 0.00 | 0.00 | 0.00 | 79 | 1010.2 |
| 20260504210503 | 52 | 254 | 1.0 | 3.0 | 0.00 | 0.00 | 0.00 | 79 | 1010.4 |
| 20260504210404 | 52 | 251 | 1.0 | 6.0 | 0.00 | 0.00 | 0.00 | 79 | 1010.2 |
| 20260504210304 | 52 | 260 | 1.0 | 9.0 | 0.00 | 0.00 | 0.00 | 79 | 1010.3 |
| 20260504210204 | 51 | 269 | 1.0 | 9.0 | 0.00 | 0.00 | 0.00 | 79 | 1010.4 |
| 20260504210104 | 51 | 274 | 1.0 | 9.0 | 0.00 | 0.00 | 0.00 | 79 | 1010.4 |
| 20260504210005 | 52 | 272 | 1.0 | 9.0 | 0.00 | 0.00 | 0.00 | 79 | 1010.4 |
| 20260504205903 | 52 | 273 | 1.0 | 9.0 | 0.00 | 0.00 | 0.00 | 79 | 1010.4 |
| 20260504205703 | 52 | 277 | 1.0 | 9.0 | 0.00 | 0.00 | 0.00 | 79 | 1010.1 |
| 20260504205603 | 52 | 282 | 1.0 | 9.0 | 0.00 | 0.00 | 0.00 | 79 | 1010.1 |
| 20260504205521 | 52 | 286 | 1.0 | 9.0 | 0.00 | 0.00 | 0.00 | 78 | 1010.2 |
| 20260504205503 | 52 | 287 | 1.0 | 9.0 | 0.00 | 0.00 | 0.00 | 78 | 1010.2 |
| 20260504205404 | 52 | 293 | 1.0 | 9.0 | 0.00 | 0.00 | 0.00 | 78 | 1010.2 |
| 20260504205217 | 52 | 310 | 1.0 | 9.0 | 0.00 | 0.00 | 0.00 | 78 | 1010.2 |
| 20260504205204 | 52 | 303 | 1.0 | 9.0 | 0.00 | 0.00 | 0.00 | 81 | 1010.2 |
| 20260504205104 | 52 | 184 | 0.0 | 2.0 | 0.00 | 0.00 | 0.00 | 81 | 1010.1 |
| 20260504204903 | 52 | 169 | 0.0 | 1.0 | 0.00 | 0.00 | 0.00 | 81 | 1009.9 |
| 20260504204803 | 52 | 163 | 0.0 | 1.0 | 0.00 | 0.00 | 0.00 | 81 | 1009.9 |
| 20260504204703 | 52 | 147 | 0.0 | 1.0 | 0.00 | 0.00 | 0.00 | 80 | 1009.8 |
| 20260504204604 | 52 | 141 | 0.0 | 1.0 | 0.00 | 0.00 | 0.00 | 80 | 1010.0 |
| 20260504204503 | 52 | 141 | 0.0 | 1.0 | 0.00 | 0.00 | 0.00 | 80 | 1009.8 |
| 20260504204403 | 52 | 141 | 0.0 | 1.0 | 0.00 | 0.00 | 0.00 | 80 | 1009.8 |
| 20260504204203 | 52 | 141 | 0.0 | 2.0 | 0.00 | 0.00 | 0.00 | 80 | 1009.7 |
| 20260504204104 | 53 | 140 | 0.0 | 2.0 | 0.00 | 0.00 | 0.00 | 81 | 1010.1 |
| 20260504204003 | 53 | 140 | 0.0 | 2.0 | 0.00 | 0.00 | 0.00 | 81 | 1009.9 |
| 20260504203903 | 53 | 140 | 1.0 | 2.0 | 0.00 | 0.00 | 0.00 | 82 | 1009.9 |
| 20260504203803 | 53 | 140 | 1.0 | 2.0 | 0.00 | 0.00 | 0.00 | 82 | 1009.8 |
| 20260504203703 | 53 | 140 | 1.0 | 2.0 | 0.00 | 0.00 | 0.00 | 82 | 1009.8 |
| 20260504203603 | 53 | 140 | 1.0 | 2.0 | 0.00 | 0.00 | 0.00 | 81 | 1009.8 |
| 20260504203503 | 53 | 140 | 1.0 | 2.0 | 0.00 | 0.00 | 0.00 | 81 | 1009.8 |
| 20260504203404 | 53 | 140 | 1.0 | 2.0 | 0.00 | 0.00 | 0.00 | 81 | 1009.8 |
| 20260504203304 | 53 | 140 | 1.0 | 2.0 | 0.00 | 0.00 | 0.00 | 82 | 1009.8 |
| 20260504203203 | 53 | 140 | 1.0 | 2.0 | 0.00 | 0.00 | 0.00 | 82 | 1009.8 |
| 20260504203103 | 53 | 141 | 1.0 | 2.0 | 0.00 | 0.00 | 0.00 | 82 | 1009.9 |
| 20260504202903 | 53 | 141 | 1.0 | 2.0 | 0.00 | 0.00 | 0.00 | 83 | 1009.8 |
| 20260504202803 | 53 | 140 | 1.0 | 2.0 | 0.00 | 0.00 | 0.00 | 83 | 1009.7 |
| 20260504202705 | 53 | 139 | 1.0 | 2.0 | 0.00 | 0.00 | 0.00 | 82 | 1009.8 |
| 20260504202617 | 53 | 139 | 1.0 | 2.0 | 0.00 | 0.00 | 0.00 | 81 | 1009.7 |
| 20260504202304 | 53 | 139 | 1.0 | 2.0 | 0.00 | 0.00 | 0.00 | 78 | 1009.7 |
| 20260504202203 | 53 | 138 | 0.0 | 2.0 | 0.00 | 0.00 | 0.00 | 79 | 1009.7 |
| 20260504202103 | 53 | 137 | 0.0 | 2.0 | 0.00 | 0.00 | 0.00 | 78 | 1009.7 |
| 20260504202003 | 53 | 136 | 0.0 | 2.0 | 0.00 | 0.00 | 0.00 | 76 | 1009.8 |
| 20260504201903 | 53 | 130 | 0.0 | 2.0 | 0.00 | 0.00 | 0.00 | 76 | 1009.6 |
| 20260504201804 | 53 | 0 | 0.0 | 1.0 | 0.00 | 0.00 | 0.00 | 76 | 1009.8 |
| 20260504201703 | 54 | 0 | 0.0 | 0.0 | 0.00 | 0.00 | 0.00 | 75 | 1009.7 |
| 20260504201604 | 54 | 0 | 0.0 | 0.0 | 0.00 | 0.00 | 0.00 | 76 | 1009.7 |
| 20260504201503 | 54 | 0 | 0.0 | 0.0 | 0.00 | 0.00 | 0.00 | 76 | 1009.9 |
| 20260504201404 | 54 | 0 | 0.0 | 0.0 | 0.00 | 0.00 | 0.00 | 77 | 1009.9 |
| 20260504201304 | 54 | 0 | 0.0 | 0.0 | 0.00 | 0.00 | 0.00 | 77 | 1009.8 |
| 20260504201203 | 54 | 0 | 0.0 | 0.0 | 0.00 | 0.00 | 0.00 | 77 | 1009.8 |
| 20260504201003 | 54 | 0 | 0.0 | 0.0 | 0.00 | 0.00 | 0.00 | 77 | 1009.9 |
| 20260504200903 | 54 | 0 | 0.0 | 0.0 | 0.00 | 0.00 | 0.00 | 77 | 1009.8 |
| 20260504200819 | 54 | 0 | 0.0 | 0.0 | 0.00 | 0.00 | 0.00 | 78 | 1009.8 |
| 20260504200704 | 54 | 0 | 0.0 | 0.0 | 0.00 | 0.00 | 0.00 | 78 | 1009.8 |
| 20260504200616 | 54 | 0 | 0.0 | 0.0 | 0.00 | 0.00 | 0.00 | 77 | 1009.7 |
| 20260504200303 | 54 | 0 | 0.0 | 0.0 | 0.00 | 0.00 | 0.00 | 79 | 1009.7 |
| 20260504200103 | 54 | 0 | 0.0 | 0.0 | 0.00 | 0.00 | 0.00 | 79 | 1009.8 |
| 20260504200003 | 54 | 0 | 0.0 | 0.0 | 0.00 | 0.00 | 0.00 | 79 | 1009.8 |
| 20260504195804 | 55 | 0 | 0.0 | 1.0 | 0.00 | 0.00 | 0.00 | 78 | 1009.7 |
| 20260504195704 | 55 | 128 | 0.0 | 1.0 | 0.00 | 0.00 | 0.00 | 78 | 1009.8 |
| 20260504195604 | 55 | 128 | 0.0 | 1.0 | 0.00 | 0.00 | 0.00 | 78 | 1009.7 |
| 20260504195503 | 55 | 128 | 0.0 | 1.0 | 0.00 | 0.00 | 0.00 | 77 | 1009.7 |
| 20260504195403 | 55 | 127 | 0.0 | 1.0 | 0.00 | 0.00 | 0.00 | 77 | 1009.7 |
| 20260504195304 | 55 | 127 | 0.0 | 1.0 | 0.00 | 0.00 | 0.00 | 76 | 1009.7 |
| 20260504195204 | 55 | 128 | 0.0 | 1.0 | 0.00 | 0.00 | 0.00 | 77 | 1009.7 |
| 20260504195104 | 55 | 128 | 0.0 | 1.0 | 0.00 | 0.00 | 0.00 | 76 | 1009.8 |
| 20260504195003 | 55 | 128 | 0.0 | 1.0 | 0.00 | 0.00 | 0.00 | 76 | 1009.7 |
| 20260504194903 | 55 | 127 | 0.0 | 1.0 | 0.00 | 0.00 | 0.00 | 76 | 1009.8 |
| 20260504194819 | 55 | 127 | 0.0 | 1.0 | 0.00 | 0.00 | 0.00 | 76 | 1009.7 |
| 20260504194803 | 56 | 127 | 0.0 | 1.0 | 0.00 | 0.00 | 0.00 | 76 | 1009.7 |
| 20260504194703 | 56 | 127 | 0.0 | 1.0 | 0.00 | 0.00 | 0.00 | 76 | 1009.6 |
| 20260504194519 | 56 | 128 | 0.0 | 2.0 | 0.00 | 0.00 | 0.00 | 75 | 1009.7 |
| 20260504194404 | 56 | 128 | 0.0 | 2.0 | 0.00 | 0.00 | 0.00 | 75 | 1009.8 |
| 20260504194204 | 56 | 130 | 1.0 | 2.0 | 0.00 | 0.00 | 0.00 | 73 | 1009.8 |
| 20260504194103 | 56 | 132 | 1.0 | 2.0 | 0.00 | 0.00 | 0.00 | 73 | 1009.6 |
| 20260504194003 | 56 | 134 | 1.0 | 2.0 | 0.00 | 0.00 | 0.00 | 73 | 1009.8 |
| 20260504193503 | 56 | 136 | 1.0 | 2.0 | 0.00 | 0.00 | 0.00 | 73 | 1009.7 |
| 20260504193403 | 56 | 137 | 1.0 | 2.0 | 0.00 | 0.00 | 0.00 | 72 | 1009.6 |
| 20260504193303 | 57 | 138 | 1.0 | 2.0 | 0.00 | 0.00 | 0.00 | 72 | 1009.5 |
| 20260504193204 | 57 | 138 | 1.0 | 2.0 | 0.00 | 0.00 | 0.00 | 71 | 1009.7 |
| 20260504193003 | 57 | 138 | 1.0 | 2.0 | 0.00 | 0.00 | 0.00 | 71 | 1009.9 |
| 20260504192804 | 57 | 138 | 1.0 | 2.0 | 0.00 | 0.00 | 0.00 | 71 | 1009.7 |
| 20260504192603 | 57 | 133 | 1.0 | 2.0 | 0.00 | 0.00 | 0.00 | 72 | 1009.8 |
| 20260504192519 | 57 | 133 | 1.0 | 2.0 | 0.00 | 0.00 | 0.00 | 71 | 1009.9 |
| 20260504192504 | 57 | 132 | 1.0 | 2.0 | 0.00 | 0.00 | 0.00 | 71 | 1009.9 |
| 20260504192403 | 57 | 131 | 1.0 | 2.0 | 0.00 | 0.00 | 0.00 | 71 | 1009.8 |
| 20260504192204 | 57 | 130 | 1.0 | 2.0 | 0.00 | 0.00 | 0.00 | 69 | 1009.8 |
| 20260504192113 | 57 | 131 | 1.0 | 2.0 | 0.00 | 0.00 | 0.00 | 68 | 1009.7 |
| 20260504192004 | 57 | 134 | 1.0 | 2.0 | 0.00 | 0.00 | 0.00 | 67 | 1009.7 |
| 20260504190404 | 58 | 334 | 1.0 | 6.0 | 0.00 | 0.00 | 0.00 | 64 | 1010.4 |
| 20260504190203 | 58 | 310 | 1.0 | 6.0 | 0.00 | 0.00 | 0.00 | 63 | 1010.5 |
| 20260504190104 | 59 | 255 | 2.0 | 6.0 | 0.00 | 0.00 | 0.00 | 63 | 1010.4 |
| 20260504190004 | 59 | 204 | 2.0 | 6.0 | 0.00 | 0.00 | 0.00 | 64 | 1010.5 |
| 20260504185904 | 59 | 185 | 2.0 | 6.0 | 0.00 | 0.00 | 0.00 | 63 | 1010.5 |
| 20260504185804 | 59 | 176 | 1.0 | 4.0 | 0.00 | 0.00 | 0.00 | 63 | 1010.1 |
| 20260504185703 | 59 | 171 | 1.0 | 3.0 | 0.00 | 0.00 | 0.00 | 63 | 1010.3 |
| 20260504185603 | 59 | 169 | 2.0 | 3.0 | 0.00 | 0.00 | 0.00 | 63 | 1010.3 |
| 20260504185503 | 59 | 168 | 1.0 | 3.0 | 0.00 | 0.00 | 0.00 | 61 | 1010.3 |
| 20260504185419 | 59 | 168 | 2.0 | 3.0 | 0.00 | 0.00 | 0.00 | 61 | 1010.4 |
| 20260504185403 | 59 | 170 | 2.0 | 3.0 | 0.00 | 0.00 | 0.00 | 61 | 1010.4 |
| 20260504185304 | 59 | 172 | 1.0 | 3.0 | 0.00 | 0.00 | 0.00 | 60 | 1010.2 |
| 20260504185119 | 59 | 173 | 1.0 | 3.0 | 0.00 | 0.00 | 0.00 | 60 | 1010.1 |
| 20260504185103 | 59 | 174 | 1.0 | 3.0 | 0.00 | 0.00 | 0.00 | 60 | 1010.1 |
| 20260504185005 | 59 | 176 | 1.0 | 3.0 | 0.00 | 0.00 | 0.00 | 60 | 1010.2 |
| 20260504184819 | 60 | 179 | 1.0 | 3.0 | 0.00 | 0.00 | 0.00 | 59 | 1010.3 |
| 20260504184805 | 60 | 178 | 1.0 | 3.0 | 0.00 | 0.00 | 0.00 | 59 | 1010.3 |
| 20260504184704 | 60 | 180 | 1.0 | 3.0 | 0.00 | 0.00 | 0.00 | 59 | 1010.2 |
| 20260504184620 | 60 | 180 | 1.0 | 3.0 | 0.00 | 0.00 | 0.00 | 59 | 1010.2 |
| 20260504184505 | 60 | 182 | 1.0 | 3.0 | 0.00 | 0.00 | 0.00 | 59 | 1010.1 |
| 20260504184303 | 60 | 181 | 1.0 | 4.0 | 0.00 | 0.00 | 0.00 | 59 | 1010.2 |
| 20260504184205 | 60 | 182 | 2.0 | 4.0 | 0.00 | 0.00 | 0.00 | 59 | 1010.2 |
| 20260504184103 | 60 | 181 | 2.0 | 4.0 | 0.00 | 0.00 | 0.00 | 59 | 1010.1 |
| 20260504184004 | 60 | 179 | 2.0 | 4.0 | 0.00 | 0.00 | 0.00 | 58 | 1010.2 |
| 20260504183903 | 60 | 179 | 2.0 | 4.0 | 0.00 | 0.00 | 0.00 | 59 | 1010.1 |
| 20260504183804 | 60 | 180 | 2.0 | 4.0 | 0.00 | 0.00 | 0.00 | 58 | 1010.2 |
| 20260504183604 | 61 | 180 | 2.0 | 4.0 | 0.00 | 0.00 | 0.00 | 58 | 1010.2 |
| 20260504183504 | 61 | 181 | 2.0 | 4.0 | 0.00 | 0.00 | 0.00 | 57 | 1010.3 |
| 20260504183404 | 61 | 181 | 1.0 | 4.0 | 0.00 | 0.00 | 0.00 | 57 | 1010.2 |
| 20260504183216 | 61 | 180 | 1.0 | 3.0 | 0.00 | 0.00 | 0.00 | 57 | 1010.2 |
| 20260504183204 | 61 | 181 | 1.0 | 3.0 | 0.00 | 0.00 | 0.00 | 57 | 1010.2 |
| 20260504183103 | 61 | 185 | 1.0 | 3.0 | 0.00 | 0.00 | 0.00 | 57 | 1010.4 |
| 20260504182904 | 61 | 189 | 1.0 | 2.0 | 0.00 | 0.00 | 0.00 | 57 | 1010.1 |
| 20260504182803 | 61 | 192 | 1.0 | 2.0 | 0.00 | 0.00 | 0.00 | 57 | 1010.1 |
| 20260504182705 | 62 | 198 | 1.0 | 2.0 | 0.00 | 0.00 | 0.00 | 57 | 1010.3 |
| 20260504182620 | 62 | 200 | 1.0 | 2.0 | 0.00 | 0.00 | 0.00 | 57 | 1010.0 |
| 20260504182603 | 62 | 202 | 0.0 | 2.0 | 0.00 | 0.00 | 0.00 | 57 | 1010.0 |
| 20260504182505 | 62 | 202 | 0.0 | 2.0 | 0.00 | 0.00 | 0.00 | 56 | 1010.1 |
| 20260504182417 | 62 | 210 | 0.0 | 2.0 | 0.00 | 0.00 | 0.00 | 55 | 1010.3 |
| 20260504182304 | 62 | 221 | 0.0 | 1.0 | 0.00 | 0.00 | 0.00 | 57 | 1010.1 |
| 20260504182103 | 62 | 221 | 0.0 | 1.0 | 0.00 | 0.00 | 0.00 | 57 | 1010.2 |
| 20260504182003 | 62 | 0 | 0.0 | 1.0 | 0.00 | 0.00 | 0.00 | 56 | 1010.0 |
| 20260504181903 | 63 | 0 | 0.0 | 1.0 | 0.00 | 0.00 | 0.00 | 57 | 1010.0 |
| 20260504181803 | 63 | 0 | 0.0 | 1.0 | 0.00 | 0.00 | 0.00 | 57 | 1010.2 |
| 20260504181705 | 63 | 0 | 0.0 | 1.0 | 0.00 | 0.00 | 0.00 | 57 | 1010.1 |
| 20260504181604 | 63 | 0 | 0.0 | 1.0 | 0.00 | 0.00 | 0.00 | 56 | 1010.1 |
| 20260504181503 | 63 | 0 | 0.0 | 1.0 | 0.00 | 0.00 | 0.00 | 56 | 1010.2 |
| 20260504181403 | 64 | 221 | 0.0 | 1.0 | 0.00 | 0.00 | 0.00 | 56 | 1010.0 |
| 20260504181204 | 64 | 221 | 0.0 | 1.0 | 0.00 | 0.00 | 0.00 | 54 | 1009.9 |
| 20260504181119 | 64 | 221 | 0.0 | 1.0 | 0.00 | 0.00 | 0.00 | 54 | 1010.1 |
| 20260504181105 | 64 | 221 | 0.0 | 1.0 | 0.00 | 0.00 | 0.00 | 53 | 1010.1 |
| 20260504181004 | 64 | 221 | 0.0 | 1.0 | 0.00 | 0.00 | 0.00 | 53 | 1009.9 |
| 20260504180704 | 65 | 222 | 0.0 | 1.0 | 0.00 | 0.00 | 0.00 | 53 | 1010.0 |
| 20260504180603 | 65 | 222 | 0.0 | 1.0 | 0.00 | 0.00 | 0.00 | 53 | 1009.8 |
| 20260504180505 | 65 | 222 | 0.0 | 1.0 | 0.00 | 0.00 | 0.00 | 54 | 1010.1 |
| 20260504180404 | 65 | 222 | 0.0 | 1.0 | 0.00 | 0.00 | 0.00 | 53 | 1009.8 |
| 20260504180304 | 66 | 221 | 0.0 | 1.0 | 0.00 | 0.00 | 0.00 | 54 | 1009.8 |
| 20260504180206 | 66 | 221 | 0.0 | 2.0 | 0.00 | 0.00 | 0.00 | 52 | 1010.1 |
| 20260504180103 | 66 | 221 | 0.0 | 2.0 | 0.00 | 0.00 | 0.00 | 51 | 1009.9 |
| 20260504180004 | 66 | 221 | 0.0 | 2.0 | 0.00 | 0.00 | 0.00 | 50 | 1010.0 |
| 20260504175803 | 67 | 218 | 1.0 | 3.0 | 0.00 | 0.00 | 0.00 | 49 | 1009.8 |
| 20260504175704 | 67 | 219 | 1.0 | 3.0 | 0.00 | 0.00 | 0.00 | 49 | 1009.8 |
| 20260504175603 | 67 | 218 | 1.0 | 3.0 | 0.00 | 0.00 | 0.00 | 50 | 1009.9 |
| 20260504175505 | 68 | 218 | 1.0 | 3.0 | 0.00 | 0.00 | 0.00 | 48 | 1009.8 |
| 20260504175404 | 68 | 216 | 1.0 | 3.0 | 0.00 | 0.00 | 0.00 | 48 | 1009.8 |
| 20260504175304 | 68 | 213 | 1.0 | 3.0 | 0.00 | 0.00 | 0.00 | 48 | 1009.7 |
| 20260504175204 | 68 | 213 | 1.0 | 3.0 | 0.00 | 0.00 | 0.00 | 46 | 1009.8 |
| 20260504175103 | 68 | 212 | 1.0 | 3.0 | 0.00 | 0.00 | 0.00 | 47 | 1009.7 |
| 20260504175017 | 69 | 213 | 1.0 | 3.0 | 0.00 | 0.00 | 0.00 | 45 | 1009.7 |
| 20260504175003 | 69 | 214 | 1.0 | 3.0 | 0.00 | 0.00 | 0.00 | 45 | 1009.7 |
| 20260504174903 | 69 | 217 | 1.0 | 3.0 | 0.00 | 0.00 | 0.00 | 45 | 1009.7 |
| 20260504174704 | 69 | 218 | 1.0 | 3.0 | 0.00 | 0.00 | 0.00 | 43 | 1009.6 |
| 20260504174619 | 70 | 217 | 1.0 | 3.0 | 0.00 | 0.00 | 0.00 | 45 | 1009.7 |
| 20260504174603 | 70 | 216 | 1.0 | 3.0 | 0.00 | 0.00 | 0.00 | 45 | 1009.7 |
| 20260504174504 | 70 | 220 | 1.0 | 3.0 | 0.00 | 0.00 | 0.00 | 42 | 1009.6 |
| 20260504174319 | 70 | 233 | 1.0 | 6.0 | 0.00 | 0.00 | 0.00 | 44 | 1009.6 |
| 20260504174303 | 70 | 236 | 1.0 | 6.0 | 0.00 | 0.00 | 0.00 | 44 | 1009.6 |
| 20260504174204 | 71 | 235 | 1.0 | 6.0 | 0.00 | 0.00 | 0.00 | 44 | 1009.5 |
| 20260504174004 | 71 | 236 | 1.0 | 6.0 | 0.00 | 0.00 | 0.00 | 42 | 1009.7 |
| 20260504173903 | 71 | 236 | 1.0 | 6.0 | 0.00 | 0.00 | 0.00 | 42 | 1009.7 |
| 20260504173803 | 71 | 233 | 1.0 | 6.0 | 0.00 | 0.00 | 0.00 | 42 | 1009.6 |
| 20260504173705 | 71 | 232 | 2.0 | 6.0 | 0.00 | 0.00 | 0.00 | 43 | 1009.6 |
| 20260504173603 | 72 | 235 | 2.0 | 6.0 | 0.00 | 0.00 | 0.00 | 41 | 1009.7 |
| 20260504173504 | 72 | 234 | 2.0 | 6.0 | 0.00 | 0.00 | 0.00 | 42 | 1009.6 |
| 20260504173419 | 72 | 232 | 2.0 | 6.0 | 0.00 | 0.00 | 0.00 | 38 | 1009.7 |
| 20260504173403 | 72 | 231 | 2.0 | 6.0 | 0.00 | 0.00 | 0.00 | 38 | 1009.7 |
| 20260504173103 | 73 | 228 | 2.0 | 6.0 | 0.00 | 0.00 | 0.00 | 39 | 1009.6 |
| 20260504173003 | 73 | 227 | 2.0 | 6.0 | 0.00 | 0.00 | 0.00 | 37 | 1009.4 |
| 20260504172822 | 73 | 227 | 2.0 | 8.0 | 0.00 | 0.00 | 0.00 | 38 | 1009.5 |
| 20260504172804 | 73 | 228 | 2.0 | 8.0 | 0.00 | 0.00 | 0.00 | 38 | 1009.5 |
| 20260504172704 | 73 | 228 | 2.0 | 8.0 | 0.00 | 0.00 | 0.00 | 36 | 1009.3 |
| 20260504172518 | 74 | 228 | 2.0 | 8.0 | 0.00 | 0.00 | 0.00 | 36 | 1009.4 |
| 20260504172503 | 74 | 229 | 2.0 | 8.0 | 0.00 | 0.00 | 0.00 | 36 | 1009.4 |
| 20260504172404 | 74 | 231 | 2.0 | 8.0 | 0.00 | 0.00 | 0.00 | 35 | 1009.6 |
| 20260504172204 | 74 | 232 | 3.0 | 8.0 | 0.00 | 0.00 | 0.00 | 35 | 1009.5 |
| 20260504172109 | 74 | 233 | 3.0 | 8.0 | 0.00 | 0.00 | 0.00 | 35 | 1009.5 |
| 20260504172004 | 74 | 236 | 3.0 | 8.0 | 0.00 | 0.00 | 0.00 | 36 | 1009.5 |
| 20260504171905 | 74 | 239 | 3.0 | 8.0 | 0.00 | 0.00 | 0.00 | 34 | 1009.4 |
| 20260504171803 | 74 | 239 | 3.0 | 8.0 | 0.00 | 0.00 | 0.00 | 35 | 1009.4 |
| 20260504171704 | 75 | 244 | 3.0 | 10.0 | 0.00 | 0.00 | 0.00 | 34 | 1009.4 |
| 20260504171604 | 75 | 244 | 3.0 | 10.0 | 0.00 | 0.00 | 0.00 | 33 | 1009.4 |
| 20260504171503 | 75 | 246 | 3.0 | 10.0 | 0.00 | 0.00 | 0.00 | 34 | 1009.4 |
| 20260504171403 | 75 | 247 | 3.0 | 10.0 | 0.00 | 0.00 | 0.00 | 35 | 1009.3 |
| 20260504171303 | 75 | 250 | 3.0 | 10.0 | 0.00 | 0.00 | 0.00 | 32 | 1009.4 |
| 20260504171215 | 75 | 250 | 3.0 | 10.0 | 0.00 | 0.00 | 0.00 | 34 | 1009.5 |
| 20260504171103 | 75 | 245 | 3.0 | 10.0 | 0.00 | 0.00 | 0.00 | 33 | 1009.5 |
| 20260504170919 | 75 | 243 | 3.0 | 10.0 | 0.00 | 0.00 | 0.00 | 34 | 1009.5 |
| 20260504170903 | 75 | 242 | 3.0 | 10.0 | 0.00 | 0.00 | 0.00 | 33 | 1009.5 |
| 20260504170804 | 75 | 243 | 3.0 | 10.0 | 0.00 | 0.00 | 0.00 | 33 | 1009.5 |
| 20260504170605 | 76 | 243 | 3.0 | 10.0 | 0.00 | 0.00 | 0.00 | 33 | 1009.3 |
| 20260504170504 | 76 | 237 | 2.0 | 7.0 | 0.00 | 0.00 | 0.00 | 33 | 1009.3 |
| 20260504170403 | 76 | 235 | 3.0 | 7.0 | 0.00 | 0.00 | 0.00 | 33 | 1009.3 |
| 20260504170304 | 76 | 236 | 2.0 | 7.0 | 0.00 | 0.00 | 0.00 | 33 | 1009.3 |
| 20260504170203 | 76 | 238 | 2.0 | 7.0 | 0.00 | 0.00 | 0.00 | 32 | 1009.2 |
| 20260504160403 | 77 | 230 | 6.0 | 17.0 | 0.00 | 0.00 | 0.00 | 29 | 1009.3 |
| 20260504160304 | 77 | 227 | 6.0 | 17.0 | 0.00 | 0.00 | 0.00 | 29 | 1009.3 |
| 20260504160204 | 77 | 223 | 7.0 | 17.0 | 0.00 | 0.00 | 0.00 | 29 | 1009.4 |
| 20260504160103 | 77 | 228 | 7.0 | 17.0 | 0.00 | 0.00 | 0.00 | 29 | 1009.4 |
| 20260504141303 | 79 | 242 | 5.0 | 16.0 | 0.00 | 0.00 | 0.00 | 28 | 1009.9 |
| 20260504141218 | 79 | 244 | 5.0 | 16.0 | 0.00 | 0.00 | 0.00 | 28 | 1009.7 |
| 20260504141205 | 79 | 244 | 6.0 | 16.0 | 0.00 | 0.00 | 0.00 | 28 | 1009.7 |
| 20260504141104 | 79 | 244 | 6.0 | 16.0 | 0.00 | 0.00 | 0.00 | 28 | 1009.7 |
| 20260504141021 | 79 | 242 | 6.0 | 16.0 | 0.00 | 0.00 | 0.00 | 28 | 1009.9 |
| 20260504140903 | 79 | 243 | 7.0 | 16.0 | 0.00 | 0.00 | 0.00 | 28 | 1009.9 |
| 20260504140704 | 79 | 245 | 7.0 | 16.0 | 0.00 | 0.00 | 0.00 | 27 | 1009.9 |
| 20260504140605 | 79 | 246 | 6.0 | 16.0 | 0.00 | 0.00 | 0.00 | 28 | 1010.0 |
| 20260504140503 | 79 | 242 | 7.0 | 16.0 | 0.00 | 0.00 | 0.00 | 28 | 1009.9 |
| 20260504140403 | 79 | 242 | 7.0 | 16.0 | 0.00 | 0.00 | 0.00 | 27 | 1010.0 |
| 20260504140318 | 79 | 243 | 7.0 | 16.0 | 0.00 | 0.00 | 0.00 | 28 | 1010.0 |
| 20260504140305 | 79 | 242 | 6.0 | 14.0 | 0.00 | 0.00 | 0.00 | 28 | 1010.0 |
| 20260504140216 | 79 | 240 | 6.0 | 14.0 | 0.00 | 0.00 | 0.00 | 27 | 1009.9 |
| 20260504140205 | 79 | 240 | 6.0 | 14.0 | 0.00 | 0.00 | 0.00 | 27 | 1009.9 |